Wind_Speed
20 19 17 16 15 16 18 19 18 19 21 22 21 18 17 15 13 13 14 14 12 10 10 13 13 13 14 15 14 13 11 10 8 7 7 8 9 10 10 10 10 11
20 19 17 15 15 16 18 19 19 19 21 22 22 20 18 16 15 15 16 15 15 13 12 12 11 9 9 11 14 15 15 14 11 10 9 8 8 9 9 9 10 10
19 19 18 17 16 17 17 17 17 17 18 18 20 21 19 17 17 17 17 16 16 16 15 14 12 9 6 6 8 11 16 18 17 15 13 12 12 11 11 11 11 12
19 19 19 19 19 18 18 17 16 14 14 15 16 18 19 19 18 18 18 16 15 16 17 17 15 13 10 8 7 7 10 15 19 18 17 17 17 17 17 16 16 16
19 18 18 19 19 17 17 19 18 15 14 14 14 16 18 19 19 19 19 17 14 14 17 19 18 16 13 11 10 9 8 10 13 15 16 18 18 19 21 21 20 19
19 18 18 18 18 17 16 18 19 17 15 15 15 16 17 17 18 19 20 18 15 14 17 20 20 19 17 14 13 13 12 12 11 12 14 15 14 15 17 19 19 19
19 18 19 20 21 20 17 16 17 18 17 17 18 18 18 18 19 19 20 19 17 15 16 19 21 21 19 17 17 17 17 17 15 16 17 17 16 15 15 16 16 17
17 16 17 19 21 21 20 18 17 17 17 19 20 19 19 20 20 20 20 20 19 18 17 18 20 21 20 20 21 22 22 21 20 20 21 22 21 19 17 16 17 17
15 17 18 18 19 19 20 20 19 19 18 18 19 19 19 21 21 21 21 21 20 20 19 19 20 21 22 22 24 26 25 25 24 23 24 25 25 24 21 19 19 20
16 19 21 23 21 18 18 18 19 20 19 18 18 17 17 16 16 18 19 20 22 22 22 21 21 23 25 26 27 28 28 28 27 28 28 29 28 27 24 22 23 23
16 19 21 21 19 17 17 17 17 18 17 17 18 18 17 14 12 12 14 15 17 18 17 17 18 19 21 22 25 28 30 30 30 30 31 32 31 29 26 24 24 25
17 18 17 14 13 15 16 15 13 12 12 13 15 16 17 17 17 16 16 17 17 15 12 12 13 13 14 15 17 20 23 25 27 29 32 33 34 32 28 26 26 27
15 15 14 11 10 11 12 11 9 9 10 11 12 13 14 14 16 16 17 18 19 18 17 16 15 16 17 17 16 15 15 16 19 23 28 32 34 33 29 27 26 27
9 10 9 8 7 7 7 8 8 8 9 8 8 10 11 12 12 12 13 14 15 15 15 15 15 16 18 18 17 15 13 13 14 15 20 26 29 28 26 24 23 24
2 4 5 5 4 4 5 6 7 7 6 5 6 8 10 11 10 9 9 9 10 10 10 10 11 12 14 15 16 16 15 15 15 13 14 17 18 18 18 18 18 19
7 5 2 0 2 1 1 2 4 5 5 5 5 5 7 9 8 7 6 5 5 6 6 6 7 8 10 12 13 13 13 14 14 14 13 13 14 14 15 15 16 16
13 12 9 7 7 7 6 4 4 3 2 1 1 2 2 3 4 4 3 3 4 4 4 3 4 6 8 9 9 10 11 10 11 13 14 15 16 17 17 17 17 17
15 15 13 12 11 10 9 8 7 6 6 5 5 5 4 3 3 3 3 3 3 3 2 3 4 6 7 7 8 10 11 11 11 12 13 14 15 15 16 16 16 17
16 16 15 13 12 11 10 10 10 11 10 10 9 8 7 6 6 6 6 5 4 5 6 6 6 7 8 8 10 10 10 11 11 11 11 11 11 12 13 13 13 15
17 16 15 13 12 12 12 12 13 13 12 10 9 9 9 8 8 8 9 9 8 8 9 10 10 10 9 9 9 9 9 9 9 8 7 7 7 8 8 9 10 11
16 16 17 16 15 14 14 13 12 12 12 10 9 9 9 9 9 10 12 13 13 12 12 14 15 14 13 12 11 9 7 7 5 4 3 4 5 5 6 7 8 8
15 16 17 17 17 16 15 13 12 12 13 13 13 14 14 14 15 15 15 15 15 14 15 17 16 15 15 14 13 12 9 5 3 4 5 6 6 6 5 6 7 7
14 14 15 16 17 17 16 15 13 13 15 16 18 19 20 19 19 17 16 16 17 17 18 20 19 18 17 17 16 14 11 9 9 9 9 9 9 9 8 9 9 9
13 12 12 13 15 16 16 16 16 16 16 16 17 18 18 18 18 18 18 18 19 20 21 22 22 21 20 19 19 17 16 15 15 14 12 11 11 12 13 14 14 15
13 12 12 12 13 13 14 13 13 14 14 14 14 15 15 15 15 16 17 18 18 18 19 20 21 22 21 20 19 19 19 19 19 18 17 16 16 17 18 18 18 18
15 13 12 12 11 11 11 11 10 10 10 11 11 11 11 12 12 13 14 14 14 14 15 16 17 19 21 20 19 18 17 18 18 19 20 19 18 19 18 18 18 18
Wind_Direction
213 219 228 230 230 233 236 235 232 229 230 232 231 230 230 232 235 235 234 233 229 225 218 216 224 233 239 246 253 256 259 263 268 271 263 252 250 251 250 250 252 253
218 222 230 235 240 244 245 240 236 234 233 235 236 236 235 236 235 235 235 234 234 235 224 213 215 221 233 244 248 253 255 255 257 261 262 259 253 253 255 258 260 258
222 226 232 238 244 249 248 241 236 237 237 236 237 238 238 238 236 236 238 236 238 240 230 219 214 210 220 236 240 249 252 250 249 250 256 260 260 261 261 262 265 264
226 230 236 240 243 250 255 247 240 240 238 233 235 238 238 238 237 237 239 238 238 237 230 224 222 220 227 235 237 246 249 247 245 245 252 257 260 262 261 260 261 262
225 230 237 242 244 251 258 253 246 246 244 239 237 236 234 233 233 234 236 237 238 236 229 226 224 224 229 235 236 241 246 245 241 239 245 250 254 257 257 256 255 256
228 231 235 240 245 250 253 251 247 247 249 248 241 234 232 231 230 230 233 238 243 240 230 228 228 226 229 234 236 239 243 244 240 235 237 243 248 253 254 253 253 255
234 238 239 242 246 249 250 248 249 249 248 249 245 238 235 235 234 233 234 239 244 242 232 229 231 230 230 234 239 242 242 243 243 240 240 244 249 253 252 250 250 252
239 245 247 248 249 250 250 249 252 254 248 245 248 247 245 244 242 240 240 240 242 243 237 234 237 236 235 239 242 242 241 242 242 242 243 244 246 249 249 245 244 247
252 254 253 253 252 251 251 252 257 259 250 245 248 255 259 257 250 245 244 243 243 245 243 241 243 241 241 246 246 243 242 243 244 245 247 245 244 246 247 245 244 247
261 259 255 252 253 254 254 256 260 259 253 248 248 251 254 255 253 250 249 246 245 247 248 248 248 246 247 250 248 245 245 246 246 248 249 247 245 246 248 250 250 251
253 255 254 252 254 257 257 255 255 256 254 250 250 250 246 243 246 251 252 250 250 250 252 255 255 254 255 256 253 249 248 248 249 251 251 249 248 248 249 251 253 257
237 244 249 253 255 252 250 251 253 259 263 261 261 263 259 255 256 258 258 256 251 248 252 261 262 259 260 263 261 256 253 253 253 254 253 251 249 248 248 251 254 259
227 235 242 250 255 249 248 255 261 265 267 267 271 276 274 271 271 272 269 263 258 257 259 265 266 263 263 266 266 265 264 260 256 257 257 254 250 247 246 251 256 259
231 237 243 251 259 256 254 259 258 255 259 267 281 287 286 282 280 280 277 271 271 270 266 265 268 270 269 268 265 265 267 263 262 265 262 256 250 246 247 256 262 262
204 218 231 251 268 257 246 248 251 259 277 297 298 285 278 276 276 279 280 277 277 278 273 271 277 281 279 276 273 273 275 275 273 271 264 257 252 251 256 265 267 266
79 96 128 279 4 22 257 285 296 306 317 311 295 279 274 279 283 287 296 301 299 303 305 294 284 282 282 282 284 287 290 287 279 272 268 267 267 267 271 275 276 274
71 72 75 70 65 69 65 47 33 32 29 304 326 2 330 312 315 316 328 355 0 352 339 321 301 293 292 290 292 299 302 300 290 282 279 278 278 280 282 285 285 284
76 76 79 82 85 86 85 85 89 89 86 79 67 61 62 64 55 36 35 45 44 43 35 11 339 318 312 308 305 306 308 306 301 296 292 288 287 289 292 293 293 291
88 87 88 90 90 91 89 86 82 76 70 68 69 70 68 68 69 66 70 76 71 57 40 20 358 339 330 321 313 306 300 296 293 293 295 298 300 303 304 306 306 303
92 93 91 89 86 85 83 81 78 75 70 67 72 80 79 77 80 82 81 76 65 57 48 40 34 23 9 353 335 319 304 296 290 289 299 316 329 334 334 332 328 319
88 92 91 87 84 83 84 88 92 91 86 80 82 87 86 86 87 86 83 79 74 71 66 58 50 42 33 26 17 5 343 319 305 307 337 8 18 14 359 347 341 331
87 93 90 86 86 85 86 90 96 99 98 97 96 94 92 91 90 86 84 82 78 73 68 61 53 45 40 35 28 26 22 12 28 68 68 64 61 51 32 16 6 355
85 96 95 91 90 88 86 87 92 99 101 100 98 96 94 91 88 85 84 83 80 74 69 65 59 51 46 44 40 38 44 58 77 88 85 73 64 55 48 46 42 37
82 100 105 99 95 94 91 89 93 99 101 101 99 98 96 92 89 88 89 88 84 79 73 67 61 55 50 50 49 50 57 70 81 89 91 84 76 71 68 67 65 61
80 101 117 111 102 103 102 98 99 101 101 101 100 99 98 96 92 92 93 92 86 78 72 67 63 58 54 53 56 59 64 73 80 85 89 89 86 81 75 72 69 64
74 89 114 122 116 114 114 114 113 110 108 109 108 105 106 105 101 99 99 97 90 80 72 67 63 60 57 55 58 62 66 72 78 81 84 84 82 79 75 71 68 64
Height
796 798 799 800 801 802 802 803 803 803 803 804 805 805 805 805 806 806 807 807 808 808 809 809 810 811 811 812 812 813 813 814 814 814 814 814 814 813 813 813 813 813
796 798 799 800 800 801 801 801 801 801 802 803 803 804 804 804 804 804 805 805 806 807 807 808 808 809 810 810 811 811 812 812 812 813 813 813 813 812 812 812 812 811
796 797 798 798 798 798 799 799 800 800 801 801 802 803 803 803 803 803 803 804 804 805 806 806 807 807 808 808 809 809 809 810 810 811 811 811 811 811 811 810 810 810
794 796 796 796 796 797 798 799 800 800 800 800 800 801 801 801 801 801 801 802 802 802 803 804 805 805 806 806 807 807 807 807 808 809 810 810 810 810 809 809 809 808
792 793 794 794 795 797 798 799 799 799 799 799 799 799 800 800 800 800 800 800 800 800 801 802 803 803 804 805 805 806 806 806 806 807 807 808 808 808 807 807 807 806
790 791 791 792 793 795 796 797 798 798 798 798 798 798 798 798 798 798 798 798 799 799 799 800 801 801 802 803 804 804 804 804 804 805 805 805 805 805 805 805 804 804
789 790 788 789 790 792 794 796 797 797 796 797 797 797 797 796 796 797 797 797 797 797 798 798 799 800 801 802 802 803 802 802 803 803 803 803 803 803 803 802 802 802
787 786 786 787 789 791 793 794 795 795 795 796 796 796 796 795 795 795 795 795 795 796 796 796 797 798 799 800 800 800 800 800 801 801 800 800 800 800 800 800 800 799
784 783 785 788 790 791 791 792 793 793 794 794 794 794 794 794 794 793 794 794 794 794 794 794 795 795 796 797 797 797 798 798 798 798 798 798 798 797 798 798 798 797
783 783 786 789 790 790 790 790 791 792 792 793 793 793 792 792 792 792 792 792 792 793 793 793 793 794 794 794 794 794 795 795 795 796 795 795 795 795 796 796 796 796
785 785 787 788 788 788 788 788 789 790 790 790 790 791 791 791 791 791 791 791 791 791 791 792 792 793 793 792 792 792 792 792 793 793 793 793 792 793 793 794 794 793
787 787 787 787 787 787 787 788 787 787 788 788 789 789 789 790 790 789 789 789 789 789 790 790 790 791 791 791 791 790 790 790 791 790 790 790 790 791 791 791 791 791
788 787 787 786 786 786 787 786 786 785 786 787 788 788 789 789 788 788 788 787 787 787 788 789 789 789 789 789 789 789 788 788 788 788 788 788 788 788 789 789 789 788
786 787 786 786 786 786 786 785 784 785 786 786 787 788 788 788 787 787 786 786 786 786 787 787 787 787 787 788 788 788 787 787 786 786 786 786 786 787 787 788 787 787
784 784 784 785 785 785 785 785 785 785 785 784 785 787 788 787 786 786 785 785 786 785 786 786 786 786 786 787 787 786 786 786 785 785 785 785 785 786 786 786 786 784
783 783 783 784 784 784 785 785 784 783 782 783 784 786 787 786 785 785 785 785 785 785 785 786 785 785 785 785 785 785 784 784 784 784 784 784 784 784 784 784 783 782
784 784 783 784 784 784 784 784 783 783 783 785 786 786 786 785 784 784 784 785 785 785 785 785 784 785 784 784 784 783 783 782 782 782 782 782 782 781 781 781 781 781
786 786 786 786 786 786 786 785 785 785 785 786 786 786 786 785 785 785 785 785 785 784 784 784 784 784 783 783 782 782 781 781 781 780 780 780 780 779 779 779 779 778
789 789 789 789 789 788 788 787 787 787 786 786 786 786 786 786 786 786 785 785 785 785 785 784 784 783 783 782 781 781 780 780 779 779 779 779 779 778 778 778 777 776
791 790 791 791 790 790 789 789 788 788 788 788 787 787 787 787 787 787 786 786 786 786 785 785 784 783 782 781 780 779 778 778 778 778 778 778 778 777 777 776 776 775
792 792 792 792 792 791 790 790 789 789 788 788 788 788 788 788 788 787 787 787 787 786 786 785 784 783 782 781 779 778 777 776 776 776 777 777 777 776 776 776 775 774
794 794 794 793 793 793 792 791 791 790 790 789 789 789 789 789 789 789 788 788 788 787 786 785 785 783 782 781 779 778 776 775 775 776 776 776 776 776 775 775 774 773
796 796 796 795 795 794 793 793 792 792 792 791 791 791 791 790 790 790 789 789 788 788 787 786 785 784 782 781 779 778 776 775 775 775 776 776 776 776 775 775 774 773
798 797 797 797 796 795 795 795 794 794 794 794 793 793 792 792 791 791 790 790 789 789 788 787 786 785 784 782 780 779 777 776 776 776 776 776 776 776 775 775 774 773
799 798 798 797 797 797 797 796 796 796 796 796 795 794 794 793 793 792 792 791 791 790 789 788 787 786 785 783 782 781 779 778 777 776 776 776 776 776 776 775 774 774
800 799 798 798 798 798 798 798 798 798 798 797 797 796 795 795 794 793 793 792 792 791 790 789 788 787 787 785 784 782 781 780 779 778 777 777 777 776 776 775 775 774